Regional Weather Roundup
Issued by NWS

Home | Current Version | Previous Version | Graphics & Text | Print | Product List | Glossary On
Versions: 1 2 3 4 5 6 7 8 9 10 11 12 13 14 15 16 17 18 19 20 21 22 23 24 25 26 27
000
ASUS45 KCYS 201210
RWRWY

WYOMING REGIONAL WEATHER ROUNDUP
NATIONAL WEATHER SERVICE CHEYENNE WY
600 AM MDT FRI OCT 20 2017

NOTE:  "FAIR" INDICATES FEW OR NO CLOUDS BELOW 12,000 FEET
WITH NO SIGNIFICANT WEATHER AND/OR OBSTRUCTIONS TO VISIBILITY.

WYZ001-201300-
YELLOWSTONE NATIONAL PARK

CITY           SKY/WX    TMP DP  RH WIND       PRES   REMARKS
LK YELLOWSTONE   N/A     25  21  85 NW3       29.71F
6HR MIN TEMP:  25; 6HR MAX TEMP:  27;

W YELLOWSTONE  NOT AVBL

$$
WYZ002>013-054>058-071-098>099-201300-
NORTHERN WYOMING

CITY           SKY/WX    TMP DP  RH WIND       PRES   REMARKS
JACKSON        FAIR      26  21  81 N8        29.68F WCI  18
CODY           FAIR      49  20  31 SW3       29.57F
GREYBULL       FAIR      40  23  50 VRB3      29.54F
6HR MIN TEMP:  34; 6HR MAX TEMP:  46;

WORLAND        FAIR      52  27  38 SE8       29.55F
6HR MIN TEMP:  42; 6HR MAX TEMP:  53;

SHERIDAN       FAIR      41  27  57 SW6       29.52F
6HR MIN TEMP:  36; 6HR MAX TEMP:  51;

BUFFALO        FAIR      60  15  17 VRB6      29.56F
6HR MIN TEMP:  51; 6HR MAX TEMP:  65;

GILLETTE       FAIR      58  29  33 SW16      29.57S
6HR MIN TEMP:  57; 6HR MAX TEMP:  62;

HULETT         FAIR      61  30  31 SW16G23   29.59F
NEWCASTLE      FAIR      55  27  33 SE7G16    29.65F

$$
WYZ014>020-022>026-101>103-201300-
CENTRAL WYOMING

CITY           SKY/WX    TMP DP  RH WIND       PRES   REMARKS
BIG PINEY      FAIR      33  20  58 E5        29.76F WCI  29
6HR MIN TEMP:  32; 6HR MAX TEMP:  41;

PINEDALE       CLOUDY    41  25  52 SE6       29.77F
DUBOIS         FAIR      36  23  60 NW6       29.70F WCI  31
LANDER         FAIR      46  23  40 CALM      29.64F
6HR MIN TEMP:  42; 6HR MAX TEMP:  58;

RIVERTON       FAIR      39  24  55 N3        29.65F
6HR MIN TEMP:  36; 6HR MAX TEMP:  53;

CASPER         FAIR      53  30  41 SW21      29.69F
6HR MIN TEMP:  43; 6HR MAX TEMP:  53;

DOUGLAS        FAIR      49  31  49 CALM      29.69F
6HR MIN TEMP:  41; 6HR MAX TEMP:  54;


$$
WYZ021-027>030-104>119-201300-
SOUTHERN WYOMING

CITY           SKY/WX    TMP DP  RH WIND       PRES   REMARKS
EVANSTON       FAIR      46  34  62 SW14      29.77F
6HR MIN TEMP:  44; 6HR MAX TEMP:  51;

KEMMERER       FAIR      45  32  61 SW3       29.78F
FORT BRIDGER   FAIR      47  33  57 SW10      29.80S
ROCK SPRINGS   FAIR      49  25  39 VRB3      29.77F
6HR MIN TEMP:  47; 6HR MAX TEMP:  53;

DIXON          CLOUDY    55  30  37 S10G16    29.86F
RAWLINS        FAIR      49  29  46 S15       29.81F
6HR MIN TEMP:  47; 6HR MAX TEMP:  53;

SARATOGA       FAIR      45  30  57 S16       29.84F
LARAMIE        FAIR      39  28  64 W5        29.87F
6HR MIN TEMP:  37; 6HR MAX TEMP:  46;

CHEYENNE       FAIR      45  31  58 W9        29.79F
6HR MIN TEMP:  40; 6HR MAX TEMP:  51;

TORRINGTON     FAIR      37  29  72 CALM      29.70S
6HR MIN TEMP:  35; 6HR MAX TEMP:  48;

PINE BLUFFS    FAIR      34  30  86 MISG      29.76F

$$




USA.gov is the U.S. government's official web portal to all federal, state and local government web resources and services.